M I D A S
Marine Information and Data Acquisition System
Tripno 230 of the Zeeleeuw from 2002-03-26 07:41:28 to 2002-03-26 14:18:32
Back to CruiseResearch ActivitiesStationsMapUnderway DataData graphs

EquipmentUnitsComments
TimeDGPSUTC
LatitudeDGPSDM.mWGS84
LongitudeDGPSDM.mWGS84
SpeedMeteo Stationm/sRelative wind speed
DirectionMeteo StationdegRelative wind direction
TemperatureMeteo Stationdeg CelciusAir temperature
PressureMeteo StationPaAtmospheric pressure
HumidityMeteo Station%Relative humidity
Missing or incorrect values are displayed as -999
Metereological data collected by the RV Zeeleeuw from 2002-03-26 07:41:28 to 2002-03-26 14:18:32
Time Latitude Longitude Speed Direction Temperature Pressure Humidity
2002-03-26 07:42 51°13.688 2°55.905 0.7 123 6.8 102810 79
2002-03-26 07:43 51°13.686 2°55.905 0.8 120 6.8 102810 79
2002-03-26 07:44 51°13.691 2°55.872 1.7 71 6.8 102810 79
2002-03-26 07:45 51°13.699 2°55.788 1.9 56 6.8 102810 79
2002-03-26 07:46 51°13.693 2°55.718 1.8 58 6.8 102810 79
2002-03-26 07:47 51°13.733 2°55.715 1.9 239 6.8 102810 79
2002-03-26 07:48 51°13.821 2°55.653 2.9 231 6.9 102810 79
2002-03-26 07:49 51°13.938 2°55.561 5.2 238 6.9 102810 79
2002-03-26 07:50 51°14.069 2°55.467 4.6 238 7 102810 78
2002-03-26 07:51 51°14.188 2°55.364 6 238 7.1 102810 77
2002-03-26 07:52 51°14.307 2°55.182 6.3 237 7.2 102810 76
2002-03-26 07:53 51°14.43 2°54.975 6 239 7.2 102810 75
2002-03-26 07:54 51°14.585 2°54.805 6.5 239 7.3 102810 75
2002-03-26 07:55 51°14.746 2°54.629 5.9 237 7.3 102810 75
2002-03-26 07:56 51°14.921 2°54.482 6 238 7.3 102810 75
2002-03-26 07:57 51°15.097 2°54.327 6 233 7.3 102810 74
2002-03-26 07:58 51°15.286 2°54.156 6.7 227 7.3 102800 74
2002-03-26 07:59 51°15.482 2°53.979 6.7 230 7.3 102810 73
2002-03-26 08:00 51°15.679 2°53.799 6.1 228 7.3 102810 73
2002-03-26 08:01 51°15.876 2°53.62 5.9 237 7.4 102810 74
2002-03-26 08:02 51°16.072 2°53.44 6 224 7.4 102810 74
2002-03-26 08:03 51°16.269 2°53.259 5.8 224 7.4 102810 73
2002-03-26 08:04 51°16.46 2°53.089 5.5 234 7.4 102810 72
2002-03-26 08:05 51°16.652 2°52.919 5.3 226 7.4 102810 73
2002-03-26 08:06 51°16.846 2°52.747 5.5 221 7.4 102810 72
2002-03-26 08:07 51°17.044 2°52.6 5.8 135 7.4 102810 71
2002-03-26 08:08 51°17.245 2°52.463 5.1 233 7.5 102810 72
2002-03-26 08:09 51°17.452 2°52.371 5.2 222 7.5 102810 72
2002-03-26 08:10 51°17.673 2°52.34 5.8 213 7.5 102810 72
2002-03-26 08:11 51°17.891 2°52.319 5.8 221 7.5 102800 72
2002-03-26 08:12 51°18.109 2°52.312 5.4 218 7.5 102800 72
2002-03-26 08:13 51°18.252 2°52.545 8 212 7.5 102790 72
2002-03-26 08:14 51°18.374 2°52.835 8.9 217 7.5 102790 73
2002-03-26 08:15 51°18.459 2°53.165 9.2 217 7.5 102790 73
2002-03-26 08:16 51°18.546 2°53.493 7.6 218 7.6 102790 72
2002-03-26 08:17 51°18.625 2°53.826 7.5 218 7.5 102800 73
2002-03-26 08:18 51°18.707 2°54.158 8.2 219 7.5 102800 73
2002-03-26 08:19 51°18.788 2°54.489 7.5 219 7.5 102800 72
2002-03-26 08:20 51°18.865 2°54.823 7.9 220 7.5 102800 73
2002-03-26 08:21 51°18.935 2°55.164 7.2 224 7.5 102800 73
2002-03-26 08:22 51°19.007 2°55.505 7.8 221 7.5 102800 73
2002-03-26 08:23 51°19.08 2°55.846 7.9 222 7.5 102800 74
2002-03-26 08:24 51°19.154 2°56.188 7.6 223 7.5 102810 74
2002-03-26 08:25 51°19.228 2°56.528 7.9 222 7.4 102810 74
2002-03-26 08:26 51°19.303 2°56.869 7.9 222 7.4 102800 74
2002-03-26 08:27 51°19.378 2°57.211 7.4 223 7.4 102800 74
2002-03-26 08:28 51°19.452 2°57.554 7.3 224 7.4 102810 73
2002-03-26 08:29 51°19.528 2°57.897 7 225 7.5 102810 75
2002-03-26 08:30 51°19.602 2°58.242 7.2 219 7.4 102800 73
2002-03-26 08:31 51°19.676 2°58.586 7.6 224 7.5 102810 74
2002-03-26 08:32 51°19.752 2°58.932 7.3 226 7.5 102810 73
2002-03-26 08:33 51°19.827 2°59.279 7.4 224 7.5 102810 73
2002-03-26 08:34 51°19.905 2°59.625 7.3 220 7.4 102810 73
2002-03-26 08:35 51°19.995 2°59.966 6.4 227 7.4 102810 74
2002-03-26 08:36 51°20.083 3°0.311 7.1 228 7.4 102810 74
2002-03-26 08:37 51°20.171 3°0.656 6.3 225 7.5 102810 74
2002-03-26 08:38 51°20.258 3°0.997 7.3 230 7.5 102810 74
2002-03-26 08:39 51°20.349 3°1.352 8 231 7.5 102820 73
2002-03-26 08:40 51°20.442 3°1.694 7.8 228 7.4 102820 72
2002-03-26 08:41 51°20.537 3°2.033 8.5 228 7.5 102820 73
2002-03-26 08:42 51°20.633 3°2.371 8.7 230 7.5 102820 73
2002-03-26 08:43 51°20.73 3°2.712 7.8 230 7.4 102820 74
2002-03-26 08:44 51°20.829 3°3.053 8 226 7.3 102820 75
2002-03-26 08:45 51°20.932 3°3.391 7.7 230 7.3 102820 75
2002-03-26 08:46 51°21.033 3°3.724 7.5 237 7.2 102820 74
2002-03-26 08:47 51°21.136 3°4.07 7.4 232 7.2 102820 74
2002-03-26 08:48 51°21.238 3°4.413 7.5 231 7.2 102820 75
2002-03-26 08:49 51°21.34 3°4.755 8.3 233 7.2 102810 74
2002-03-26 08:50 51°21.443 3°5.098 7.7 237 7.2 102820 74
2002-03-26 08:51 51°21.544 3°5.441 7.4 236 7.2 102820 74
2002-03-26 08:52 51°21.645 3°5.779 8 236 7.2 102820 74
2002-03-26 08:53 51°21.735 3°6.137 7.4 234 7.2 102820 74
2002-03-26 08:54 51°21.827 3°6.491 7.1 233 7.2 102820 74
2002-03-26 08:55 51°21.917 3°6.848 7.1 239 7.3 102820 75
2002-03-26 08:56 51°21.979 3°7.221 7.3 232 7.3 102820 75
2002-03-26 08:57 51°22.04 3°7.596 7.7 233 7.3 102820 75
2002-03-26 08:58 51°22.127 3°7.952 6.9 230 7.3 102820 74
2002-03-26 08:59 51°22.315 3°8.187 7.8 235 7.3 102820 74
2002-03-26 09:00 51°22.507 3°8.422 7.3 237 7.3 102830 74
2002-03-26 09:01 51°22.659 3°8.722 7.5 236 7.4 102830 74
2002-03-26 09:02 51°22.762 3°9.07 6.8 235 7.4 102830 75
2002-03-26 09:03 51°22.803 3°9.449 6.7 226 7.4 102830 75
2002-03-26 09:04 51°22.832 3°9.824 7 233 7.4 102830 75
2002-03-26 09:05 51°22.859 3°10.208 6.8 234 7.4 102820 75
2002-03-26 09:06 51°22.871 3°10.596 6.8 233 7.4 102820 75
2002-03-26 09:07 51°22.863 3°10.996 7 235 7.4 102820 76
2002-03-26 09:08 51°22.858 3°11.394 7.4 236 7.4 102820 76
2002-03-26 09:09 51°22.851 3°11.792 8 236 7.4 102820 76
2002-03-26 09:10 51°22.843 3°12.183 7.6 235 7.4 102820 76
2002-03-26 09:11 51°22.833 3°12.591 8.5 237 7.4 102820 76
2002-03-26 09:12 51°22.831 3°12.995 8.6 235 7.4 102810 76
2002-03-26 09:13 51°22.846 3°13.398 8.4 236 7.4 102810 76
2002-03-26 09:14 51°22.856 3°13.805 8.5 234 7.3 102810 76
2002-03-26 09:15 51°22.873 3°14.209 9.1 232 7.3 102810 76
2002-03-26 09:16 51°22.902 3°14.612 8.7 232 7.3 102810 76
2002-03-26 09:17 51°22.932 3°15.018 9.2 234 7.2 102810 76
2002-03-26 09:18 51°22.976 3°15.421 9.9 238 7.2 102810 76
2002-03-26 09:19 51°23.025 3°15.823 9.3 237 7.2 102820 75
2002-03-26 09:20 51°23.067 3°16.228 9.6 231 7.2 102810 76
2002-03-26 09:21 51°23.159 3°16.584 8.1 223 7.2 102810 76
2002-03-26 09:22 51°23.374 3°16.749 8.7 223 7.2 102800 75
2002-03-26 09:23 51°23.604 3°16.848 9.2 219 7.2 102810 76
2002-03-26 09:24 51°23.835 3°16.941 8.4 217 7.2 102810 77
2002-03-26 09:25 51°24.067 3°17.044 8.1 223 7.2 102810 77
2002-03-26 09:26 51°24.294 3°17.152 8 219 7.3 102810 76
2002-03-26 09:27 51°24.53 3°17.234 8.9 214 7.3 102800 77
2002-03-26 09:28 51°24.756 3°17.278 7.4 223 7.3 102800 77
2002-03-26 09:29 51°24.986 3°17.308 8.5 208 7.3 102810 77
2002-03-26 09:30 51°25.203 3°17.273 7.6 208 7.3 102800 77
2002-03-26 09:31 51°25.382 3°17.116 6.3 222 7.2 102810 76
2002-03-26 09:32 51°25.523 3°16.885 6 219 7.2 102820 76
2002-03-26 09:33 51°25.652 3°16.633 6.3 223 7.2 102810 76
2002-03-26 09:34 51°25.786 3°16.393 5.6 227 7.2 102820 75
2002-03-26 09:35 51°25.924 3°16.144 6 222 7.2 102820 76
2002-03-26 09:36 51°26.059 3°15.898 6.6 225 7.2 102820 76
2002-03-26 09:37 51°26.192 3°15.655 6.1 225 7.2 102820 76
2002-03-26 09:38 51°26.324 3°15.411 5.4 229 7.3 102820 76
2002-03-26 09:39 51°26.458 3°15.163 5.8 224 7.3 102820 76
2002-03-26 09:40 51°26.592 3°14.908 5.6 229 7.3 102820 75
2002-03-26 09:41 51°26.726 3°14.652 5.6 228 7.3 102820 75
2002-03-26 09:42 51°26.86 3°14.397 5.5 226 7.3 102820 75
2002-03-26 09:43 51°26.993 3°14.143 5.6 227 7.3 102830 76
2002-03-26 09:44 51°27.123 3°13.893 5.7 227 7.3 102820 76
2002-03-26 09:45 51°27.256 3°13.635 5.8 228 7.3 102830 77
2002-03-26 09:46 51°27.385 3°13.381 4.9 229 7.3 102820 76
2002-03-26 09:47 51°27.512 3°13.131 5.7 229 7.3 102830 77
2002-03-26 09:48 51°27.643 3°12.873 5.2 231 7.4 102830 77
2002-03-26 09:49 51°27.772 3°12.618 6.1 234 7.4 102830 77
2002-03-26 09:50 51°27.898 3°12.358 5.4 230 7.5 102830 78
2002-03-26 09:51 51°28.024 3°12.096 5.5 240 7.5 102820 78
2002-03-26 09:52 51°28.15 3°11.833 5.7 236 7.5 102820 77
2002-03-26 09:53 51°28.277 3°11.569 5.3 234 7.5 102820 77
2002-03-26 09:54 51°28.406 3°11.303 6 240 7.5 102830 77
2002-03-26 09:55 51°28.535 3°11.033 6 241 7.5 102820 76
2002-03-26 09:56 51°28.666 3°10.762 5.7 240 7.5 102820 75
2002-03-26 09:57 51°28.798 3°10.49 5.5 238 7.6 102820 76
2002-03-26 09:58 51°28.905 3°10.193 5.9 244 7.6 102820 76
2002-03-26 09:59 51°28.856 3°9.871 7.6 247 7.6 102810 76
2002-03-26 10:00 51°28.793 3°9.539 7.3 249 7.6 102810 76
2002-03-26 10:01 51°28.72 3°9.212 6.8 252 7.6 102800 76
2002-03-26 10:02 51°28.638 3°8.89 6.9 250 7.7 102800 76
2002-03-26 10:03 51°28.552 3°8.574 6.8 251 7.7 102800 77
2002-03-26 10:04 51°28.464 3°8.264 6.8 250 7.7 102800 77
2002-03-26 10:05 51°28.377 3°7.954 7.1 250 7.8 102800 77
2002-03-26 10:06 51°28.286 3°7.646 7.4 251 7.8 102800 78
2002-03-26 10:07 51°28.194 3°7.34 7.6 249 7.8 102810 78
2002-03-26 10:08 51°28.102 3°7.035 7.7 249 7.7 102800 78
2002-03-26 10:09 51°28.007 3°6.733 7.2 248 7.7 102810 78
2002-03-26 10:10 51°27.913 3°6.431 7.5 250 7.7 102810 77
2002-03-26 10:11 51°27.787 3°6.168 8.6 243 7.7 102810 77
2002-03-26 10:12 51°27.592 3°6.043 8.5 243 7.7 102800 77
2002-03-26 10:13 51°27.392 3°6.126 8.9 231 7.7 102800 77
2002-03-26 10:14 51°27.262 3°6.428 9.9 231 7.7 102810 76
2002-03-26 10:15 51°27.13 3°6.737 9.8 233 7.7 102810 76
2002-03-26 10:16 51°26.993 3°7.04 9.9 233 7.7 102810 76
2002-03-26 10:17 51°26.851 3°7.338 9.8 233 7.7 102800 76
2002-03-26 10:18 51°26.709 3°7.638 10.6 231 7.7 102810 76
2002-03-26 10:19 51°26.567 3°7.94 10 233 7.7 102810 76
2002-03-26 10:20 51°26.424 3°8.242 11 233 7.6 102810 75
2002-03-26 10:21 51°26.282 3°8.546 11 235 7.6 102810 76
2002-03-26 10:22 51°26.141 3°8.849 10.5 235 7.6 102810 76
2002-03-26 10:23 51°26 3°9.151 11.4 234 7.6 102800 76
2002-03-26 10:24 51°25.858 3°9.452 10.4 235 7.6 102810 77
2002-03-26 10:25 51°25.715 3°9.753 10.3 235 7.6 102800 78
2002-03-26 10:26 51°25.575 3°10.049 11.2 235 7.5 102810 77
2002-03-26 10:27 51°25.421 3°10.342 11.2 239 7.5 102810 77
2002-03-26 10:28 51°25.237 3°10.572 10.2 240 7.5 102800 78
2002-03-26 10:29 51°25.03 3°10.736 9.8 245 7.4 102800 77
2002-03-26 10:30 51°24.814 3°10.74 8.9 256 7.4 102800 77
2002-03-26 10:31 51°24.679 3°10.505 6.6 254 7.5 102800 77
2002-03-26 10:32 51°24.603 3°10.221 5.6 256 7.4 102810 77
2002-03-26 10:33 51°24.619 3°9.915 4.5 247 7.5 102820 77
2002-03-26 10:34 51°24.662 3°9.601 5.2 255 7.5 102820 77
2002-03-26 10:35 51°24.722 3°9.283 4.6 251 7.5 102820 77
2002-03-26 10:36 51°24.807 3°8.977 4.1 241 7.5 102820 78
2002-03-26 10:37 51°24.899 3°8.675 4.6 250 7.5 102820 78
2002-03-26 10:38 51°24.988 3°8.377 4.3 242 7.5 102820 78
2002-03-26 10:39 51°25.082 3°8.069 4.5 241 7.5 102820 77
2002-03-26 10:40 51°25.175 3°7.77 4.5 243 7.5 102820 77
2002-03-26 10:41 51°25.271 3°7.462 4.3 242 7.5 102820 77
2002-03-26 10:42 51°25.369 3°7.159 3.9 241 7.5 102820 78
2002-03-26 10:43 51°25.469 3°6.853 4.7 241 7.6 102820 78
2002-03-26 10:44 51°25.568 3°6.544 4.7 238 7.6 102820 78
2002-03-26 10:45 51°25.668 3°6.235 5.3 246 7.6 102820 78
2002-03-26 10:46 51°25.765 3°5.926 5.1 245 7.6 102820 78
2002-03-26 10:47 51°25.859 3°5.614 4.8 240 7.6 102820 77
2002-03-26 10:48 51°25.953 3°5.308 5 245 7.6 102820 77
2002-03-26 10:49 51°26.053 3°4.992 5.2 244 7.6 102820 77
2002-03-26 10:50 51°26.106 3°4.669 6.3 244 7.6 102820 77
2002-03-26 10:51 51°26.155 3°4.331 6.4 244 7.6 102820 76
2002-03-26 10:52 51°26.211 3°4.007 6.3 248 7.6 102820 76
2002-03-26 10:53 51°26.258 3°3.673 6.2 246 7.7 102820 76
2002-03-26 10:54 51°26.301 3°3.346 5.7 247 7.7 102810 76
2002-03-26 10:55 51°26.344 3°3.007 6.4 245 7.7 102820 76
2002-03-26 10:56 51°26.386 3°2.672 6.4 246 7.7 102820 76
2002-03-26 10:57 51°26.429 3°2.344 7.6 240 7.7 102820 76
2002-03-26 10:58 51°26.477 3°2.009 7.4 243 7.7 102820 76
2002-03-26 10:59 51°26.516 3°1.68 7.3 240 7.7 102820 76
2002-03-26 11:00 51°26.554 3°1.346 7.4 242 7.7 102820 76
2002-03-26 11:01 51°26.592 3°1.011 8 239 7.7 102810 77
2002-03-26 11:02 51°26.632 3°0.676 6.9 241 7.6 102820 77
2002-03-26 11:03 51°26.67 3°0.338 6.7 244 7.7 102820 78
2002-03-26 11:04 51°26.703 2°60 8.1 241 7.7 102820 78
2002-03-26 11:05 51°26.735 2°59.661 8 237 7.7 102810 78
2002-03-26 11:06 51°26.767 2°59.325 7.5 239 7.7 102820 78
2002-03-26 11:07 51°26.8 2°58.988 8.2 239 7.7 102820 78
2002-03-26 11:08 51°26.834 2°58.652 7.3 236 7.6 102810 78
2002-03-26 11:09 51°26.867 2°58.317 7.9 236 7.6 102820 78
2002-03-26 11:10 51°26.9 2°57.982 7.3 243 7.6 102820 79
2002-03-26 11:11 51°26.936 2°57.645 7.8 243 7.6 102820 79
2002-03-26 11:12 51°26.966 2°57.309 8 245 7.5 102820 78
2002-03-26 11:13 51°26.996 2°56.972 8.6 243 7.6 102810 78
2002-03-26 11:14 51°27.027 2°56.638 9 238 7.6 102820 78
2002-03-26 11:15 51°27.058 2°56.309 7.3 239 7.7 102820 78
2002-03-26 11:16 51°27.091 2°55.966 8.3 235 7.7 102820 78
2002-03-26 11:17 51°27.127 2°55.629 7.8 239 7.7 102820 78
2002-03-26 11:18 51°27.172 2°55.296 7.5 234 7.7 102820 79
2002-03-26 11:19 51°27.211 2°54.964 8.1 234 7.8 102820 80
2002-03-26 11:20 51°27.255 2°54.633 7.4 232 7.8 102820 81
2002-03-26 11:21 51°27.36 2°54.337 5.8 229 7.7 102820 81
2002-03-26 11:22 51°27.549 2°54.145 9.7 220 7.7 102820 82
2002-03-26 11:23 51°27.742 2°53.951 15.8 212 7.7 102820 84
2002-03-26 11:24 51°27.933 2°53.754 16.6 210 7.9 102780 86
2002-03-26 11:25 51°28.129 2°53.561 13.5 207 7.9 102780 87
2002-03-26 11:26 51°28.323 2°53.383 15.5 208 7.9 102780 88
2002-03-26 11:27 51°28.517 2°53.197 16.5 215 7.9 102780 89
2002-03-26 11:28 51°28.713 2°53.009 15.1 210 7.9 102770 89
2002-03-26 11:29 51°28.907 2°52.829 15.8 217 7.9 102780 89
2002-03-26 11:30 51°29.1 2°52.649 16.7 214 7.9 102780 89
2002-03-26 11:31 51°29.294 2°52.468 16.8 215 7.9 102780 90
2002-03-26 11:32 51°29.42 2°52.232 11.3 160 7.9 102780 90
2002-03-26 11:33 51°29.321 2°51.966 8.5 159 7.8 102820 90
2002-03-26 11:34 51°29.23 2°51.678 7.2 163 7.8 102800 90
2002-03-26 11:35 51°29.103 2°51.441 4.2 114 7.7 102820 90
2002-03-26 11:36 51°28.913 2°51.315 2.8 87 7.7 102840 91
2002-03-26 11:37 51°28.712 2°51.236 2 149 7.7 102840 91
2002-03-26 11:38 51°28.542 2°51.059 6.8 149 7.8 102830 91
2002-03-26 11:39 51°28.477 2°50.767 12 164 7.7 102820 91
2002-03-26 11:40 51°28.474 2°50.436 9.8 180 7.7 102810 91
2002-03-26 11:41 51°28.534 2°50.115 11.7 187 7.7 102800 91
2002-03-26 11:42 51°28.598 2°49.796 9.4 185 7.8 102790 91
2002-03-26 11:43 51°28.649 2°49.476 10.4 176 7.8 102790 91
2002-03-26 11:44 51°28.659 2°49.15 11.6 175 7.8 102790 91
2002-03-26 11:45 51°28.645 2°48.834 10.3 169 7.7 102800 91
2002-03-26 11:46 51°28.601 2°48.515 9.7 168 7.7 102810 91
2002-03-26 11:47 51°28.484 2°48.272 4.6 111 7.7 102830 91
2002-03-26 11:48 51°28.292 2°48.357 1.4 340 7.6 102840 91
2002-03-26 11:49 51°28.105 2°48.516 3.2 338 7.6 102850 91
2002-03-26 11:50 51°27.912 2°48.673 4 358 7.6 102850 91
2002-03-26 11:51 51°27.723 2°48.848 2.2 345 7.6 102850 91
2002-03-26 11:52 51°27.528 2°49.018 1.2 357 7.7 102850 91
2002-03-26 11:53 51°27.336 2°49.185 2.1 334 7.7 102850 91
2002-03-26 11:54 51°27.136 2°49.353 2.8 15 7.6 102850 91
2002-03-26 11:55 51°26.943 2°49.503 2.3 12 7.6 102840 91
2002-03-26 11:56 51°26.741 2°49.669 1.2 341 7.6 102850 91
2002-03-26 11:57 51°26.55 2°49.85 3.5 354 7.7 102850 91
2002-03-26 11:58 51°26.362 2°50.031 1.6 342 7.7 102850 91
2002-03-26 11:59 51°26.178 2°50.215 2 339 7.7 102840 91
2002-03-26 12:00 51°25.98 2°50.312 2.7 130 7.6 102840 91
2002-03-26 12:01 51°25.852 2°50.1 11.3 166 7.7 102820 91
2002-03-26 12:02 51°25.759 2°49.821 9.5 164 7.7 102820 91
2002-03-26 12:03 51°25.662 2°49.546 8 171 7.7 102830 91
2002-03-26 12:04 51°25.567 2°49.276 10.1 168 7.6 102810 91
2002-03-26 12:05 51°25.468 2°49.003 8 158 7.6 102820 91
2002-03-26 12:06 51°25.368 2°48.729 7.7 167 7.6 102820 91
2002-03-26 12:07 51°25.269 2°48.45 9.4 159 7.6 102820 92
2002-03-26 12:08 51°25.164 2°48.174 9.5 154 7.6 102830 92
2002-03-26 12:09 51°25.059 2°47.898 8.4 162 7.6 102830 92
2002-03-26 12:10 51°24.958 2°47.612 9.7 156 7.6 102820 92
2002-03-26 12:11 51°24.849 2°47.336 9.1 160 7.6 102830 91
2002-03-26 12:12 51°24.743 2°47.058 8.5 152 7.6 102830 91
2002-03-26 12:13 51°24.635 2°46.786 7.9 160 7.6 102830 91
2002-03-26 12:14 51°24.612 2°46.474 14.8 202 7.6 102820 91
2002-03-26 12:15 51°24.792 2°46.291 17 218 7.6 102840 91
2002-03-26 12:16 51°24.989 2°46.119 17.3 215 7.6 102830 91
2002-03-26 12:17 51°25.19 2°45.959 17.1 220 7.7 102830 91
2002-03-26 12:18 51°25.394 2°45.804 16.1 219 7.8 102840 91
2002-03-26 12:19 51°25.598 2°45.648 16 213 7.7 102830 91
2002-03-26 12:20 51°25.8 2°45.496 15.3 220 7.6 102830 91
2002-03-26 12:21 51°26.006 2°45.345 16.8 216 7.7 102840 91
2002-03-26 12:22 51°26.207 2°45.181 18.3 218 7.6 102830 90
2002-03-26 12:23 51°26.414 2°45.025 16.3 215 7.7 102840 90
2002-03-26 12:24 51°26.615 2°44.867 16.6 211 7.7 102830 90
2002-03-26 12:25 51°26.819 2°44.712 15.2 213 7.7 102830 90
2002-03-26 12:26 51°27.015 2°44.553 14.6 213 7.7 102840 90
2002-03-26 12:27 51°27.174 2°44.323 11.4 183 7.7 102830 90
2002-03-26 12:28 51°27.153 2°44.005 9.3 161 7.8 102830 89
2002-03-26 12:29 51°27.082 2°43.69 9.3 175 7.7 102840 89
2002-03-26 12:30 51°27.015 2°43.373 10.8 168 7.7 102840 89
2002-03-26 12:31 51°26.942 2°43.059 11.2 167 7.7 102830 89
2002-03-26 12:32 51°26.87 2°42.745 9.9 156 7.7 102830 89
2002-03-26 12:33 51°26.798 2°42.434 11 167 7.7 102840 88
2002-03-26 12:34 51°26.728 2°42.123 8.9 164 7.7 102830 88
2002-03-26 12:35 51°26.659 2°41.81 8.1 171 7.7 102840 88
2002-03-26 12:36 51°26.58 2°41.511 10.7 155 7.7 102850 88
2002-03-26 12:37 51°26.488 2°41.21 10.1 155 7.9 102840 88
2002-03-26 12:38 51°26.376 2°40.935 6.9 145 7.7 102840 88
2002-03-26 12:39 51°26.253 2°40.672 9 141 7.8 102840 88
2002-03-26 12:40 51°26.062 2°40.59 1.9 44 7.8 102870 88
2002-03-26 12:41 51°25.869 2°40.725 2.2 332 7.8 102870 88
2002-03-26 12:42 51°25.663 2°40.876 3.6 355 7.8 102870 88
2002-03-26 12:43 51°25.464 2°41.021 3.8 2 7.8 102870 88
2002-03-26 12:44 51°25.262 2°41.151 1.5 342 7.8 102860 88
2002-03-26 12:45 51°25.056 2°41.297 4 357 7.8 102870 88
2002-03-26 12:46 51°24.856 2°41.439 4.3 5 7.7 102870 88
2002-03-26 12:47 51°24.66 2°41.582 1.5 323 7.8 102860 88
2002-03-26 12:48 51°24.468 2°41.72 0.9 324 7.8 102860 88
2002-03-26 12:49 51°24.265 2°41.864 3 320 7.8 102870 88
2002-03-26 12:50 51°24.066 2°42.018 1.4 339 7.8 102870 88
2002-03-26 12:51 51°23.871 2°42.163 2.7 355 7.8 102860 87
2002-03-26 12:52 51°23.667 2°42.275 0.4 351 7.8 102860 87
2002-03-26 12:53 51°23.457 2°42.28 4.6 124 7.8 102860 88
2002-03-26 12:54 51°23.283 2°42.095 5.5 133 7.8 102850 87
2002-03-26 12:55 51°23.111 2°41.91 4.6 128 7.8 102850 88
2002-03-26 12:56 51°22.94 2°41.706 5.9 133 7.8 102850 87
2002-03-26 12:57 51°22.774 2°41.5 5.6 128 7.8 102860 88
2002-03-26 12:58 51°22.606 2°41.289 4.3 138 7.8 102850 88
2002-03-26 12:59 51°22.437 2°41.083 5.1 143 7.8 102850 88
2002-03-26 13:00 51°22.271 2°40.869 5.3 141 7.8 102850 88
2002-03-26 13:01 51°22.101 2°40.664 5.4 137 7.8 102860 88
2002-03-26 13:02 51°21.934 2°40.45 6.9 134 7.8 102850 88
2002-03-26 13:03 51°21.78 2°40.212 7.6 139 7.8 102850 88
2002-03-26 13:04 51°21.623 2°39.979 6.7 138 7.8 102850 88
2002-03-26 13:05 51°21.453 2°39.767 4.6 160 7.8 102850 88
2002-03-26 13:06 51°21.286 2°39.546 6.1 137 7.8 102850 87
2002-03-26 13:07 51°21.099 2°39.407 2.5 295 7.8 102850 87
2002-03-26 13:08 51°20.896 2°39.523 1.2 337 7.8 102860 87
2002-03-26 13:09 51°20.702 2°39.688 5.5 294 7.8 102860 87
2002-03-26 13:10 51°20.64 2°40.013 10.7 289 7.9 102840 87
2002-03-26 13:11 51°20.588 2°40.366 12 292 7.9 102830 87
2002-03-26 13:12 51°20.528 2°40.716 12.4 294 7.9 102850 87
2002-03-26 13:13 51°20.476 2°41.07 10.4 288 7.9 102840 87
2002-03-26 13:14 51°20.418 2°41.43 12.5 294 7.9 102840 87
2002-03-26 13:15 51°20.362 2°41.783 11.6 302 7.9 102840 87
2002-03-26 13:16 51°20.305 2°42.135 10.3 295 7.9 102840 87
2002-03-26 13:17 51°20.245 2°42.484 11.5 297 7.9 102830 87
2002-03-26 13:18 51°20.185 2°42.83 11.6 299 7.9 102850 87
2002-03-26 13:19 51°20.123 2°43.178 10 288 7.9 102840 87
2002-03-26 13:20 51°20.069 2°43.531 8.7 290 8 102840 87
2002-03-26 13:21 51°19.994 2°43.875 9.4 301 7.9 102840 87
2002-03-26 13:22 51°19.916 2°44.214 10.2 293 7.9 102840 87
2002-03-26 13:23 51°19.838 2°44.556 11.5 300 7.9 102840 87
2002-03-26 13:24 51°19.765 2°44.898 8.1 290 7.9 102840 87
2002-03-26 13:25 51°19.682 2°45.238 8.7 295 7.9 102840 87
2002-03-26 13:26 51°19.599 2°45.577 10.7 296 7.9 102840 87
2002-03-26 13:27 51°19.515 2°45.909 7.9 295 8 102840 88
2002-03-26 13:28 51°19.429 2°46.242 8.2 291 8 102840 88
2002-03-26 13:29 51°19.34 2°46.575 8.6 291 8 102830 88
2002-03-26 13:30 51°19.239 2°46.899 10 298 7.9 102840 88
2002-03-26 13:31 51°19.148 2°47.232 8.8 305 8 102830 88
2002-03-26 13:32 51°19.049 2°47.554 8.4 297 7.9 102830 88
2002-03-26 13:33 51°18.946 2°47.873 8.2 300 8 102830 88
2002-03-26 13:34 51°18.845 2°48.187 8.6 294 7.9 102830 88
2002-03-26 13:35 51°18.743 2°48.502 9.3 294 8 102830 88
2002-03-26 13:36 51°18.64 2°48.809 10.3 298 8 102830 88
2002-03-26 13:37 51°18.529 2°49.113 8.1 303 8 102830 88
2002-03-26 13:38 51°18.418 2°49.416 8.6 301 8 102830 88
2002-03-26 13:39 51°18.302 2°49.721 8.8 296 8 102830 88
2002-03-26 13:40 51°18.191 2°50.035 9.1 297 8 102820 88
2002-03-26 13:41 51°18.081 2°50.341 8.1 299 8 102820 88
2002-03-26 13:42 51°17.971 2°50.651 8 296 8 102820 88
2002-03-26 13:43 51°17.857 2°50.957 8.8 295 8 102820 88
2002-03-26 13:44 51°17.749 2°51.26 8.9 297 8 102830 88
2002-03-26 13:45 51°17.638 2°51.565 8.6 292 8 102830 88
2002-03-26 13:46 51°17.523 2°51.864 7.2 300 8 102830 88
2002-03-26 13:47 51°17.36 2°52.095 3.1 311 8 102830 88
2002-03-26 13:48 51°17.169 2°52.283 3.8 309 8 102830 88
2002-03-26 13:49 51°16.978 2°52.453 4.9 298 8 102840 88
2002-03-26 13:50 51°16.782 2°52.623 2.3 309 8 102840 88
2002-03-26 13:51 51°16.589 2°52.797 4.1 294 8 102830 88
2002-03-26 13:52 51°16.393 2°52.969 1.6 319 7.9 102840 88
2002-03-26 13:53 51°16.194 2°53.144 2.2 319 8 102830 89
2002-03-26 13:54 51°15.997 2°53.316 3.3 321 8 102830 89
2002-03-26 13:55 51°15.797 2°53.482 4.3 293 8 102840 89
2002-03-26 13:56 51°15.601 2°53.658 2.6 319 8 102840 89
2002-03-26 13:57 51°15.405 2°53.819 2 300 8 102840 89
2002-03-26 13:58 51°15.208 2°53.985 1.6 334 7.9 102840 89
2002-03-26 13:59 51°15.032 2°54.136 1.8 357 7.9 102850 89
2002-03-26 14:00 51°14.921 2°54.265 1.6 330 7.9 102840 89
2002-03-26 14:01 51°14.78 2°54.437 2.9 316 7.9 102840 89
2002-03-26 14:02 51°14.617 2°54.636 5.3 317 7.9 102840 89
2002-03-26 14:03 51°14.456 2°54.85 5.7 290 7.9 102850 89
2002-03-26 14:04 51°14.347 2°55.084 8.1 293 7.9 102840 90
2002-03-26 14:05 51°14.258 2°55.259 1.5 319 7.9 102850 90
2002-03-26 14:06 51°14.149 2°55.387 1.3 346 7.9 102850 90
2002-03-26 14:07 51°14.032 2°55.47 3.4 20 7.9 102850 90
2002-03-26 14:08 51°13.924 2°55.548 1.4 7 7.9 102850 90
2002-03-26 14:09 51°13.835 2°55.623 2.9 31 7.9 102850 90
2002-03-26 14:10 51°13.771 2°55.696 1.5 332 8 102850 90
2002-03-26 14:11 51°13.729 2°55.761 2.8 326 7.9 102850 90
2002-03-26 14:12 51°13.707 2°55.818 0.9 351 7.9 102850 90
2002-03-26 14:13 51°13.694 2°55.878 1.4 357 7.9 102840 91
2002-03-26 14:14 51°13.688 2°55.903 2.2 354 8 102840 91
2002-03-26 14:15 51°13.687 2°55.906 1.8 340 8 102840 91
2002-03-26 14:16 51°13.688 2°55.907 2.5 3 8 102840 91
2002-03-26 14:17 51°13.688 2°55.907 4.3 360 8 102850 91
2002-03-26 14:18 51°13.687 2°55.906 3.9 353 8 102840 91